TITAN 3C TRANSTAGE DEB, 3488

Orbit data source: Space-Track

TITAN 3C TRANSTAGE DEB, 3488 is space debris in LEO originally from a launch on Fri, 15 Oct 1965 UTC launched from the Air Force Eastern Test Range (AFETR). Debris objects in space refer to the collection of defunct objects orbiting the Earth. Examples of debris include non-operational satellites, rocket bodies, and fragments generated from explosions, collisions, or faulty payload assembly.

Loading next visibility...
Identifier
3488, 1965-082QJ
Orbit
LEO
Country
Flag of USUS
Related business
Manufacturer
Unknown
Mission
Spacecraft
Bus & Motor
Unknown
Mass
Unknown
Launch date (UTC)
Icon of a cake. It is the launch day of the satellite!1965-10-15 (60 years ago)
Launch vehicle
Unknown
Launch site
Air Force Eastern Test Range (AFETR)
Object type
Payload
Rocket body
Debris
Shape & HBR
Unknown shape, 0.2 m
Radar Cross Section
Small (<0.1 m²)

Expand to show TLE details & history
Last TLE update: 20 hours ago

TLE from 20 hours ago
0 TITAN 3C TRANSTAGE DEB
1 03488U 65082QJ  25287.77581321  .00002373  00000-0  31674-3 0  9991
2 03488  32.2281  96.4440 0024245 357.1061   2.9447 14.77873008161571
Epoch: 2025-10-14T18:37Z
TLE epoch observation values (Epoch: 2025-10-14T18:37:10.261Z)
Latitude
-0.00004°
Longitude
153.59179°
Altitude
617.717 km
Speed
7.562 km/s
True Right ascension
06h 25m 46s
True Declination
0° 00' 00"
Sunlit
Object was in daylight at epoch
Visualization orbit readout
Latitude
Unknown
Longitude
Unknown
Altitude
Unknown
Speed
Unknown
Apparent Right ascension
Unknown
Apparent Declination
Unknown
Sunlit
N/A
Visualization observer readout
Local Sidereal Time
09:24:21
Azimuth
Unknown
Elevation
Unknown
Doppler factor
Unknown
Orbital elements
Apogee altitude
656.667 km
Perigee altitude
622.637 km
Semi-major axis
7,017.789 km
Eccentricity
0.00242
Inclination
32.2281°
RAAN
96.444°
Arg. of periapsis
357.1061°
True anomaly
2.95902°
Mean anomaly
2.9447°
Eccentric anomaly
2.95185°
Mean motion
3.69184 °/min
Orbital period
97.51 mins
BSTAR
0.00031674

Documentation

Showing up to 5 results
|